AB702 CYWG-CYQR

Flight info

Callsign AB702
Flight time 1h 17m
Altitude 24000
Route LIVBI DCT DUKPO DCT FAREN DCT EMLIK DCT KEMKA KEMKA6
Aircraft PC12/L-SDFGRWY/S

Departure

Time 2026-05-06 03:14
Airport Winnipeg / James Armstrong Richardson International Airport (CYWG)

Arrival

Time 2026-05-06 04:31
Airport Regina International Airport (CYQR)
Time Latitude Longitude Altitude Speed Heading
2026-05-06 03:02 49.90483 -97.25185 783 ft 0 kts 89°
2026-05-06 03:03 49.90483 -97.25186 783 ft 0 kts 89°
2026-05-06 03:08 49.90483 -97.25187 783 ft 0 kts 89°
2026-05-06 03:09 49.90464 -97.25174 784 ft 7 kts 263°
2026-05-06 03:09 49.90478 -97.25200 784 ft 0 kts 316°
2026-05-06 03:09 49.90494 -97.25221 784 ft 3 kts 321°
2026-05-06 03:10 49.90548 -97.25236 785 ft 14 kts 32°
2026-05-06 03:10 49.90568 -97.25048 784 ft 20 kts 87°
2026-05-06 03:10 49.90574 -97.24935 784 ft 7 kts 77°
2026-05-06 03:10 49.90589 -97.24832 785 ft 8 kts 78°
2026-05-06 03:11 49.90607 -97.24686 784 ft 17 kts 80°
2026-05-06 03:11 49.90649 -97.24519 786 ft 11 kts 51°
2026-05-06 03:11 49.90677 -97.24443 787 ft 15 kts 79°
2026-05-06 03:11 49.90607 -97.24291 788 ft 19 kts 138°
2026-05-06 03:12 49.90498 -97.24135 784 ft 30 kts 136°
2026-05-06 03:12 49.90373 -97.23960 782 ft 31 kts 140°
2026-05-06 03:12 49.90184 -97.23704 784 ft 36 kts 139°
2026-05-06 03:12 49.90036 -97.23533 785 ft 25 kts 105°
2026-05-06 03:13 49.90066 -97.23537 786 ft 11 kts 296°
2026-05-06 03:13 49.90080 -97.23564 786 ft 1 kts 320°
2026-05-06 03:13 49.90087 -97.23573 786 ft 4 kts 319°
2026-05-06 03:13 49.90195 -97.23721 784 ft 46 kts 319°
2026-05-06 03:14 49.90560 -97.24216 804 ft 89 kts 319°
2026-05-06 03:14 49.91046 -97.24890 1109 ft 98 kts 318°
2026-05-06 03:14 49.91560 -97.25633 1559 ft 102 kts 320°
2026-05-06 03:14 49.92081 -97.26376 2172 ft 102 kts 321°
2026-05-06 03:15 49.92601 -97.27116 2748 ft 102 kts 322°
2026-05-06 03:15 49.93125 -97.27856 3331 ft 102 kts 322°
2026-05-06 03:15 49.93650 -97.28599 3904 ft 102 kts 322°
2026-05-06 03:15 49.94178 -97.29346 4490 ft 103 kts 323°
2026-05-06 03:16 49.94553 -97.30298 5035 ft 112 kts 284°
2026-05-06 03:16 49.94500 -97.31529 5601 ft 115 kts 274°
2026-05-06 03:16 49.94428 -97.32771 6162 ft 116 kts 275°
2026-05-06 03:16 49.94357 -97.34024 6699 ft 117 kts 275°
2026-05-06 03:17 49.94286 -97.35286 7212 ft 118 kts 275°
2026-05-06 03:17 49.94215 -97.36560 7727 ft 119 kts 275°
2026-05-06 03:17 49.94142 -97.37846 8234 ft 120 kts 275°
2026-05-06 03:17 49.94070 -97.39169 8683 ft 127 kts 275°
2026-05-06 03:18 49.93993 -97.40603 9049 ft 140 kts 274°
2026-05-06 03:18 49.93908 -97.42181 9418 ft 153 kts 273°
2026-05-06 03:18 49.93812 -97.43883 9787 ft 164 kts 273°
2026-05-06 03:18 49.93708 -97.45689 10151 ft 171 kts 272°
2026-05-06 03:19 49.93599 -97.47534 10612 ft 172 kts 272°
2026-05-06 03:19 49.93491 -97.49389 11046 ft 174 kts 272°
2026-05-06 03:19 49.93383 -97.51264 11480 ft 175 kts 272°
2026-05-06 03:19 49.93273 -97.53155 11927 ft 177 kts 272°
2026-05-06 03:20 49.93051 -97.56985 12822 ft 180 kts 272°
2026-05-06 03:20 49.92938 -97.58924 13261 ft 181 kts 272°
2026-05-06 03:20 49.92824 -97.60880 13711 ft 183 kts 272°
2026-05-06 03:21 49.92708 -97.62852 14112 ft 184 kts 272°
2026-05-06 03:21 49.92591 -97.64844 14488 ft 186 kts 272°
2026-05-06 03:21 49.92472 -97.66853 14868 ft 188 kts 272°
2026-05-06 03:21 49.92352 -97.68878 15245 ft 189 kts 272°
2026-05-06 03:22 49.92231 -97.70919 15625 ft 191 kts 272°
2026-05-06 03:22 49.92109 -97.72976 16005 ft 192 kts 272°
2026-05-06 03:22 49.91985 -97.75051 16376 ft 194 kts 272°
2026-05-06 03:22 49.92030 -97.77109 16722 ft 190 kts 286°
2026-05-06 03:23 49.92236 -97.79145 17086 ft 192 kts 285°
2026-05-06 03:23 49.92425 -97.81200 17457 ft 193 kts 285°
2026-05-06 03:23 49.92619 -97.83274 17818 ft 195 kts 285°
2026-05-06 03:23 49.92816 -97.85358 18182 ft 196 kts 285°
2026-05-06 03:24 49.93014 -97.87459 18519 ft 197 kts 285°
2026-05-06 03:24 49.93211 -97.89552 18823 ft 199 kts 285°
2026-05-06 03:24 49.93411 -97.91681 19127 ft 200 kts 285°
2026-05-06 03:24 49.93612 -97.93825 19434 ft 201 kts 285°
2026-05-06 03:25 49.93814 -97.95982 19737 ft 203 kts 285°
2026-05-06 03:25 49.94017 -97.98154 20037 ft 204 kts 285°
2026-05-06 03:25 49.94221 -98.00342 20343 ft 205 kts 285°
2026-05-06 03:25 49.94425 -98.02541 20637 ft 206 kts 285°
2026-05-06 03:26 49.94630 -98.04754 20934 ft 208 kts 285°
2026-05-06 03:26 49.94836 -98.06982 21228 ft 209 kts 285°
2026-05-06 03:26 49.95043 -98.09224 21512 ft 211 kts 285°
2026-05-06 03:26 49.95251 -98.11480 21809 ft 212 kts 285°
2026-05-06 03:27 49.95460 -98.13752 22112 ft 213 kts 285°
2026-05-06 03:27 49.95670 -98.16039 22400 ft 214 kts 285°
2026-05-06 03:27 49.95880 -98.18338 22698 ft 216 kts 285°
2026-05-06 03:27 49.96092 -98.20652 22996 ft 217 kts 285°
2026-05-06 03:28 49.96304 -98.22981 23286 ft 219 kts 285°
2026-05-06 03:28 49.96514 -98.25295 23568 ft 220 kts 285°
2026-05-06 03:28 49.96731 -98.27685 23839 ft 221 kts 285°
2026-05-06 03:28 49.96942 -98.30025 24069 ft 223 kts 285°
2026-05-06 03:29 49.97166 -98.32467 24090 ft 235 kts 285°
2026-05-06 03:29 49.97400 -98.35031 24094 ft 244 kts 285°
2026-05-06 03:29 49.97638 -98.37688 24100 ft 252 kts 285°
2026-05-06 03:29 49.97880 -98.40414 24102 ft 258 kts 284°
2026-05-06 03:30 49.98129 -98.43201 24102 ft 262 kts 284°
2026-05-06 03:30 49.98380 -98.46026 24101 ft 266 kts 284°
2026-05-06 03:30 49.98633 -98.48882 24101 ft 268 kts 284°
2026-05-06 03:30 49.98888 -98.51763 24102 ft 270 kts 284°
2026-05-06 03:31 49.99144 -98.54660 24099 ft 271 kts 284°
2026-05-06 03:31 49.99400 -98.57569 24101 ft 272 kts 284°
2026-05-06 03:31 49.99656 -98.60489 24100 ft 273 kts 284°
2026-05-06 03:31 49.99912 -98.63415 24095 ft 274 kts 284°
2026-05-06 03:32 50.00168 -98.66347 24099 ft 273 kts 284°
2026-05-06 03:32 50.00420 -98.69257 24094 ft 271 kts 284°
2026-05-06 03:32 50.00669 -98.72134 24090 ft 266 kts 285°
2026-05-06 03:32 50.00914 -98.74970 24089 ft 263 kts 285°
2026-05-06 03:33 50.01157 -98.77775 24092 ft 261 kts 285°
2026-05-06 03:33 50.01396 -98.80558 24092 ft 259 kts 285°
2026-05-06 03:33 50.01634 -98.83328 24091 ft 258 kts 285°
2026-05-06 03:33 50.01870 -98.86084 24093 ft 257 kts 285°
2026-05-06 03:34 50.02104 -98.88833 24090 ft 256 kts 285°
2026-05-06 03:34 50.02337 -98.91578 24091 ft 256 kts 285°
2026-05-06 03:34 50.02569 -98.94313 24095 ft 255 kts 285°
2026-05-06 03:34 50.02800 -98.97051 24094 ft 255 kts 285°
2026-05-06 03:35 50.03031 -98.99784 24096 ft 255 kts 285°
2026-05-06 03:35 50.03260 -99.02514 24095 ft 255 kts 285°
2026-05-06 03:35 50.03490 -99.05253 24094 ft 256 kts 285°
2026-05-06 03:35 50.03719 -99.07999 24097 ft 256 kts 286°
2026-05-06 03:36 50.03948 -99.10745 24099 ft 256 kts 286°
2026-05-06 03:36 50.04176 -99.13497 24096 ft 257 kts 286°
2026-05-06 03:36 50.04404 -99.16248 24095 ft 257 kts 286°
2026-05-06 03:36 50.04631 -99.19003 24096 ft 257 kts 286°
2026-05-06 03:37 50.04858 -99.21760 24093 ft 257 kts 286°
2026-05-06 03:37 50.05084 -99.24513 24099 ft 257 kts 286°
2026-05-06 03:37 50.05310 -99.27270 24098 ft 257 kts 286°
2026-05-06 03:37 50.05532 -99.29989 24096 ft 257 kts 286°
2026-05-06 03:38 50.05758 -99.32778 24099 ft 256 kts 286°
2026-05-06 03:38 50.05982 -99.35530 24099 ft 256 kts 286°
2026-05-06 03:38 50.06202 -99.38286 24091 ft 257 kts 286°
2026-05-06 03:38 50.06421 -99.41007 24093 ft 257 kts 286°
2026-05-06 03:39 50.06644 -99.43764 24093 ft 257 kts 286°
2026-05-06 03:39 50.06865 -99.46522 24088 ft 257 kts 286°
2026-05-06 03:39 50.07086 -99.49284 24082 ft 257 kts 286°
2026-05-06 03:39 50.07305 -99.52041 24079 ft 257 kts 287°
2026-05-06 03:40 50.07524 -99.54800 24072 ft 257 kts 287°
2026-05-06 03:40 50.07742 -99.57558 24070 ft 257 kts 287°
2026-05-06 03:40 50.07960 -99.60316 24064 ft 257 kts 287°
2026-05-06 03:40 50.08177 -99.63072 24062 ft 256 kts 287°
2026-05-06 03:41 50.08392 -99.65826 24059 ft 256 kts 287°
2026-05-06 03:41 50.08608 -99.68581 24057 ft 256 kts 287°
2026-05-06 03:41 50.08822 -99.71334 24055 ft 256 kts 287°
2026-05-06 03:41 50.09036 -99.74083 24053 ft 256 kts 287°
2026-05-06 03:42 50.09249 -99.76833 24049 ft 256 kts 287°
2026-05-06 03:42 50.09461 -99.79582 24049 ft 256 kts 287°
2026-05-06 03:42 50.09601 -99.81403 24048 ft 255 kts 287°
2026-05-06 03:42 50.09812 -99.84150 24045 ft 256 kts 287°
2026-05-06 03:43 50.10022 -99.86897 24045 ft 255 kts 287°
2026-05-06 03:43 50.10232 -99.89642 24045 ft 255 kts 287°
2026-05-06 03:43 50.10441 -99.92388 24046 ft 255 kts 287°
2026-05-06 03:43 50.10649 -99.95131 24045 ft 255 kts 287°
2026-05-06 03:44 50.10856 -99.97874 24045 ft 255 kts 287°
2026-05-06 03:44 50.11062 -100.00617 24046 ft 255 kts 287°
2026-05-06 03:44 50.11268 -100.03359 24049 ft 255 kts 287°
2026-05-06 03:44 50.11474 -100.06102 24050 ft 255 kts 287°
2026-05-06 03:45 50.11679 -100.08848 24052 ft 255 kts 287°
2026-05-06 03:45 50.11883 -100.11594 24050 ft 255 kts 287°
2026-05-06 03:45 50.12086 -100.14338 24048 ft 255 kts 287°
2026-05-06 03:45 50.12288 -100.17079 24058 ft 255 kts 287°
2026-05-06 03:46 50.12491 -100.19823 24063 ft 255 kts 287°
2026-05-06 03:46 50.12692 -100.22568 24062 ft 255 kts 287°
2026-05-06 03:46 50.12894 -100.25319 24062 ft 256 kts 287°
2026-05-06 03:46 50.13094 -100.28070 24067 ft 256 kts 287°
2026-05-06 03:47 50.13294 -100.30823 24066 ft 256 kts 287°
2026-05-06 03:47 50.13493 -100.33577 24072 ft 256 kts 287°
2026-05-06 03:47 50.13692 -100.36332 24074 ft 256 kts 287°
2026-05-06 03:47 50.13890 -100.39086 24074 ft 256 kts 287°
2026-05-06 03:48 50.14088 -100.41839 24072 ft 256 kts 287°
2026-05-06 03:48 50.14284 -100.44589 24072 ft 255 kts 286°
2026-05-06 03:48 50.14480 -100.47339 24074 ft 255 kts 287°
2026-05-06 03:48 50.14675 -100.50090 24072 ft 255 kts 286°
2026-05-06 03:49 50.14870 -100.52838 24073 ft 255 kts 286°
2026-05-06 03:49 50.15063 -100.55587 24073 ft 255 kts 286°
2026-05-06 03:49 50.15256 -100.58334 24076 ft 255 kts 286°
2026-05-06 03:49 50.15449 -100.61081 24073 ft 255 kts 286°
2026-05-06 03:50 50.15640 -100.63825 24078 ft 255 kts 286°
2026-05-06 03:50 50.15831 -100.66570 24073 ft 255 kts 286°
2026-05-06 03:50 50.16021 -100.69310 24075 ft 254 kts 286°
2026-05-06 03:50 50.16210 -100.72054 24074 ft 254 kts 286°
2026-05-06 03:51 50.16399 -100.74796 24076 ft 254 kts 286°
2026-05-06 03:51 50.16587 -100.77535 24078 ft 254 kts 286°
2026-05-06 03:51 50.16774 -100.80275 24073 ft 254 kts 286°
2026-05-06 03:51 50.16960 -100.83015 24072 ft 254 kts 286°
2026-05-06 03:52 50.17146 -100.85754 24073 ft 254 kts 286°
2026-05-06 03:52 50.17331 -100.88490 24074 ft 254 kts 286°
2026-05-06 03:52 50.17515 -100.91225 24073 ft 254 kts 285°
2026-05-06 03:52 50.17699 -100.93960 24078 ft 254 kts 285°
2026-05-06 03:53 50.17882 -100.96695 24079 ft 253 kts 285°
2026-05-06 03:53 50.18064 -100.99428 24072 ft 253 kts 285°
2026-05-06 03:53 50.18245 -101.02158 24077 ft 253 kts 285°
2026-05-06 03:53 50.18426 -101.04888 24078 ft 253 kts 285°
2026-05-06 03:54 50.18606 -101.07614 24078 ft 253 kts 285°
2026-05-06 03:54 50.18785 -101.10346 24079 ft 253 kts 285°
2026-05-06 03:54 50.18964 -101.13077 24081 ft 253 kts 285°
2026-05-06 03:54 50.19142 -101.15806 24081 ft 253 kts 285°
2026-05-06 03:55 50.19319 -101.18535 24082 ft 253 kts 285°
2026-05-06 03:55 50.19495 -101.21260 24080 ft 252 kts 285°
2026-05-06 03:55 50.19671 -101.23986 24078 ft 252 kts 285°
2026-05-06 03:55 50.19846 -101.26710 24081 ft 252 kts 285°
2026-05-06 03:56 50.20021 -101.29436 24074 ft 252 kts 285°
2026-05-06 03:56 50.20194 -101.32158 24079 ft 252 kts 285°
2026-05-06 03:56 50.20367 -101.34883 24088 ft 252 kts 285°
2026-05-06 03:56 50.20540 -101.37604 24084 ft 252 kts 284°
2026-05-06 03:57 50.20711 -101.40330 24086 ft 252 kts 284°
2026-05-06 03:57 50.20882 -101.43051 24087 ft 252 kts 284°
2026-05-06 03:57 50.21052 -101.45772 24086 ft 252 kts 284°
2026-05-06 03:57 50.21222 -101.48489 24085 ft 251 kts 284°
2026-05-06 03:58 50.21390 -101.51203 24085 ft 251 kts 284°
2026-05-06 03:58 50.21558 -101.53918 24087 ft 251 kts 284°
2026-05-06 03:58 50.21726 -101.56634 24086 ft 251 kts 284°
2026-05-06 03:58 50.21892 -101.59346 24089 ft 251 kts 284°
2026-05-06 03:59 50.22058 -101.62059 24096 ft 251 kts 284°
2026-05-06 03:59 50.22223 -101.64770 24092 ft 251 kts 284°
2026-05-06 03:59 50.22388 -101.67482 24093 ft 251 kts 284°
2026-05-06 03:59 50.22552 -101.70190 24097 ft 251 kts 284°
2026-05-06 04:00 50.22715 -101.72901 24089 ft 251 kts 284°
2026-05-06 04:00 50.22877 -101.75611 24094 ft 251 kts 284°
2026-05-06 04:00 50.23039 -101.78314 24095 ft 249 kts 283°
2026-05-06 04:00 50.23200 -101.81013 24092 ft 250 kts 284°
2026-05-06 04:01 50.23361 -101.83711 24097 ft 250 kts 284°
2026-05-06 04:01 50.23521 -101.86412 24096 ft 250 kts 284°
2026-05-06 04:01 50.23679 -101.89115 24104 ft 250 kts 283°
2026-05-06 04:01 50.23838 -101.91820 24102 ft 250 kts 283°
2026-05-06 04:02 50.23995 -101.94525 24105 ft 250 kts 283°
2026-05-06 04:02 50.24153 -101.97231 24100 ft 250 kts 283°
2026-05-06 04:02 50.24309 -101.99940 24107 ft 250 kts 283°
2026-05-06 04:02 50.24465 -102.02643 24105 ft 250 kts 283°
2026-05-06 04:03 50.24620 -102.05349 24105 ft 250 kts 283°
2026-05-06 04:03 50.24775 -102.08060 24106 ft 250 kts 283°
2026-05-06 04:03 50.24927 -102.10729 24106 ft 250 kts 283°
2026-05-06 04:03 50.25080 -102.13436 24108 ft 250 kts 283°
2026-05-06 04:04 50.25233 -102.16142 24106 ft 250 kts 283°
2026-05-06 04:04 50.25385 -102.18847 24105 ft 250 kts 283°
2026-05-06 04:04 50.25536 -102.21552 24109 ft 250 kts 283°
2026-05-06 04:04 50.25687 -102.24257 24105 ft 250 kts 283°
2026-05-06 04:05 50.25837 -102.26959 24106 ft 250 kts 283°
2026-05-06 04:05 50.25986 -102.29663 24106 ft 250 kts 283°
2026-05-06 04:05 50.26135 -102.32364 24110 ft 249 kts 282°
2026-05-06 04:05 50.26283 -102.35064 24111 ft 249 kts 282°
2026-05-06 04:06 50.26409 -102.37767 24103 ft 249 kts 281°
2026-05-06 04:06 50.26497 -102.40476 24109 ft 250 kts 280°
2026-05-06 04:06 50.26559 -102.43197 24110 ft 250 kts 279°
2026-05-06 04:06 50.26623 -102.45916 24109 ft 250 kts 279°
2026-05-06 04:07 50.26693 -102.48632 24109 ft 250 kts 280°
2026-05-06 04:07 50.26763 -102.51350 24109 ft 251 kts 279°
2026-05-06 04:07 50.26831 -102.54070 24112 ft 251 kts 279°
2026-05-06 04:07 50.26898 -102.56791 24112 ft 251 kts 279°
2026-05-06 04:08 50.26965 -102.59516 24113 ft 251 kts 279°
2026-05-06 04:08 50.27031 -102.62237 24112 ft 250 kts 279°
2026-05-06 04:08 50.27096 -102.64955 24114 ft 250 kts 279°
2026-05-06 04:08 50.27161 -102.67675 24117 ft 251 kts 279°
2026-05-06 04:09 50.27225 -102.70398 24115 ft 251 kts 279°
2026-05-06 04:09 50.27289 -102.73121 24115 ft 251 kts 279°
2026-05-06 04:09 50.27351 -102.75841 24120 ft 250 kts 279°
2026-05-06 04:09 50.27414 -102.78556 24117 ft 250 kts 279°
2026-05-06 04:10 50.27475 -102.81277 24121 ft 250 kts 279°
2026-05-06 04:10 50.27536 -102.83994 24119 ft 250 kts 279°
2026-05-06 04:10 50.27596 -102.86710 24122 ft 250 kts 279°
2026-05-06 04:10 50.27656 -102.89424 24124 ft 250 kts 279°
2026-05-06 04:11 50.27715 -102.92137 24120 ft 250 kts 279°
2026-05-06 04:11 50.27772 -102.94842 24208 ft 246 kts 279°
2026-05-06 04:11 50.27832 -102.97564 23955 ft 256 kts 279°
2026-05-06 04:11 50.27895 -103.00387 23649 ft 262 kts 278°
2026-05-06 04:12 50.27953 -103.03255 23316 ft 265 kts 278°
2026-05-06 04:12 50.28010 -103.06137 23005 ft 266 kts 278°
2026-05-06 04:12 50.28068 -103.09023 22705 ft 265 kts 278°
2026-05-06 04:12 50.28126 -103.11894 22402 ft 263 kts 278°
2026-05-06 04:13 50.28183 -103.14753 22047 ft 263 kts 278°
2026-05-06 04:13 50.28239 -103.17615 21696 ft 263 kts 278°
2026-05-06 04:13 50.28294 -103.20470 21356 ft 263 kts 278°
2026-05-06 04:13 50.28348 -103.23319 21014 ft 262 kts 278°
2026-05-06 04:14 50.28402 -103.26161 20676 ft 261 kts 277°
2026-05-06 04:14 50.28454 -103.28995 20339 ft 260 kts 277°
2026-05-06 04:14 50.28505 -103.31820 20015 ft 259 kts 277°
2026-05-06 04:14 50.28553 -103.34634 19686 ft 259 kts 277°
2026-05-06 04:15 50.28602 -103.37441 19362 ft 258 kts 277°
2026-05-06 04:15 50.28652 -103.40242 19044 ft 257 kts 277°
2026-05-06 04:15 50.28701 -103.43031 18728 ft 256 kts 277°
2026-05-06 04:15 50.28748 -103.45817 18404 ft 256 kts 277°
2026-05-06 04:16 50.28795 -103.48591 18042 ft 255 kts 277°
2026-05-06 04:16 50.28841 -103.51362 17685 ft 255 kts 276°
2026-05-06 04:16 50.28886 -103.54124 17336 ft 254 kts 276°
2026-05-06 04:16 50.28931 -103.56880 16984 ft 253 kts 276°
2026-05-06 04:17 50.28975 -103.59630 16643 ft 252 kts 276°
2026-05-06 04:17 50.29016 -103.62350 16406 ft 248 kts 276°
2026-05-06 04:17 50.29057 -103.65036 16171 ft 246 kts 276°
2026-05-06 04:17 50.29098 -103.67661 15939 ft 244 kts 276°
2026-05-06 04:18 50.29138 -103.70305 15678 ft 244 kts 276°
2026-05-06 04:18 50.29178 -103.72968 15345 ft 246 kts 276°
2026-05-06 04:18 50.29217 -103.75648 15019 ft 247 kts 276°
2026-05-06 04:18 50.29255 -103.78342 14682 ft 248 kts 275°
2026-05-06 04:19 50.29293 -103.81040 14336 ft 249 kts 275°
2026-05-06 04:19 50.29331 -103.83744 13994 ft 249 kts 275°
2026-05-06 04:19 50.29367 -103.86445 13618 ft 248 kts 275°
2026-05-06 04:19 50.29403 -103.89140 13230 ft 248 kts 275°
2026-05-06 04:20 50.29438 -103.91830 12850 ft 247 kts 275°
2026-05-06 04:20 50.29473 -103.94507 12475 ft 245 kts 275°
2026-05-06 04:20 50.29506 -103.97154 12110 ft 242 kts 275°
2026-05-06 04:20 50.29539 -103.99776 11741 ft 240 kts 275°
2026-05-06 04:21 50.29571 -104.02372 11379 ft 238 kts 275°
2026-05-06 04:21 50.29602 -104.04956 11042 ft 236 kts 275°
2026-05-06 04:21 50.29632 -104.07513 10712 ft 234 kts 275°
2026-05-06 04:21 50.29661 -104.10055 10387 ft 233 kts 276°
2026-05-06 04:22 50.29690 -104.12580 10063 ft 232 kts 276°
2026-05-06 04:22 50.29718 -104.15091 9703 ft 230 kts 276°
2026-05-06 04:22 50.29745 -104.17580 9373 ft 228 kts 276°
2026-05-06 04:23 50.29797 -104.22517 8725 ft 226 kts 275°
2026-05-06 04:23 50.29823 -104.24977 8400 ft 226 kts 276°
2026-05-06 04:23 50.29847 -104.27419 8080 ft 224 kts 276°
2026-05-06 04:23 50.29871 -104.29835 7762 ft 220 kts 276°
2026-05-06 04:24 50.29894 -104.32210 7447 ft 217 kts 276°
2026-05-06 04:24 50.29916 -104.34539 7160 ft 212 kts 276°
2026-05-06 04:24 50.29938 -104.36818 6878 ft 208 kts 276°
2026-05-06 04:24 50.29959 -104.39060 6596 ft 205 kts 276°
2026-05-06 04:25 50.29979 -104.41277 6300 ft 203 kts 276°
2026-05-06 04:25 50.29998 -104.43478 6003 ft 202 kts 276°
2026-05-06 04:25 50.30034 -104.45655 5700 ft 198 kts 280°
2026-05-06 04:25 50.30394 -104.47680 5405 ft 191 kts 301°
2026-05-06 04:26 50.31176 -104.49264 5198 ft 181 kts 320°
2026-05-06 04:26 50.31807 -104.50114 5034 ft 180 kts 322°
2026-05-06 04:26 50.32757 -104.51400 4772 ft 181 kts 321°
2026-05-06 04:26 50.33670 -104.52676 4505 ft 169 kts 321°
2026-05-06 04:27 50.34505 -104.53851 4263 ft 152 kts 322°
2026-05-06 04:27 50.35225 -104.54867 4059 ft 128 kts 322°
2026-05-06 04:27 50.35832 -104.55722 3891 ft 107 kts 323°
2026-05-06 04:27 50.36319 -104.56409 3744 ft 83 kts 324°
2026-05-06 04:28 50.36702 -104.56946 3628 ft 66 kts 326°
2026-05-06 04:28 50.37051 -104.57433 3554 ft 75 kts 326°
2026-05-06 04:28 50.37473 -104.58020 3444 ft 87 kts 325°
2026-05-06 04:28 50.37941 -104.58676 3312 ft 93 kts 324°
2026-05-06 04:29 50.38431 -104.59363 3172 ft 95 kts 324°
2026-05-06 04:29 50.38928 -104.60061 3017 ft 96 kts 324°
2026-05-06 04:29 50.39430 -104.60768 2826 ft 98 kts 323°
2026-05-06 04:29 50.39940 -104.61484 2648 ft 99 kts 322°
2026-05-06 04:30 50.40447 -104.62213 2495 ft 99 kts 321°
2026-05-06 04:30 50.40964 -104.62940 2362 ft 101 kts 323°
2026-05-06 04:30 50.41488 -104.63683 2192 ft 103 kts 322°
2026-05-06 04:30 50.42015 -104.64420 2060 ft 100 kts 323°
2026-05-06 04:31 50.42530 -104.65141 1928 ft 98 kts 322°
2026-05-06 04:31 50.42976 -104.65754 1903 ft 71 kts 310°
2026-05-06 04:31 50.43241 -104.66140 1898 ft 29 kts 320°